www.pogodaiklimat.ru

Погода и климат >> Архив погоды >> Швейцария >> Фаи


ПОГОДА в Фаи

  • Прогноз погоды в Фаи
  • Монитор погоды в Фаи

АРХИВ ПОГОДЫ в Фаи

Время (UTC), дата Ветер
(напр.,м/с)
 
Видим.   Явления Облачность Т
(С)
Тd
(С)
f
(%)
Тe
(С)
Тes
(С)
Комфортность P
(гПа)
Po
(гПа)
Тmin
(С)
Tmax
(С)
R
(мм)
R24
(мм)
S
(см)
01 10.07 В 3
{5}
н/о н/о +10.4 +5.2 70 +9 +9 1019.3 949.2
02 10.07 В 2
{5}
н/о н/о +10.1 +5.2 72 +9 +9 1019.2 949.0
03 10.07 В 3
{6}
н/о н/о +10.1 +5.4 73 +8 +8 1019.2 949.0
04 10.07 СВ 4
{7}
н/о н/о +9.8 +5.2 73 +7 +7 1019.5 949.2
05 10.07 В 4
{7}
н/о н/о +10.3 +5.2 71 +8 +8 1019.4 949.3
06 10.07 В 3 н/о н/о +11.8 +5.7 66 +10 +10 1019.2 949.4 +9.8
07 10.07 В 5
{8}
н/о н/о +13.4 +5.6 59 +12 +12 1019.0 949.6
08 10.07 В 4
{8}
н/о н/о +14.7 +6.0 56 +14 +14 1018.7 949.7
09 10.07 СВ 4
{8}
н/о н/о +15.9 +6.0 52 +15 +15 1018.6 949.9
10 10.07 В 4
{8}
н/о н/о +17.9 +7.1 49 +18 +18 1018.0 949.8
11 10.07 СВ 3
{7}
н/о н/о +18.6 +7.8 49 +19 +19 1017.8 949.8
12 10.07 СВ 3
{8}
н/о н/о +19.6 +7.9 47 +21 +21 комфорт 1017.5 949.7
13 10.07 В 2
{5}
н/о н/о +21.6 +7.9 41 +23 +23 комфорт 1016.8 949.5
14 10.07 В 3
{6}
н/о н/о +20.9 +6.5 39 +22 +22 комфорт 1016.8 949.4
15 10.07 В 2
{6}
н/о н/о +21.7 +4.6 33 +22 +22 комфорт 1016.4 949.2
16 10.07 СВ 2
{5}
н/о н/о +22.1 +5.0 33 +22 +22 комфорт 1016.3 949.2
17 10.07 СВ 2
{5}
н/о н/о +21.1 +4.5 34 +21 +21 комфорт 1016.3 949.0
18 10.07 В 1
{6}
н/о н/о +18.5 +6.7 46 +20 +20 1016.9 948.9 +22.1
19 10.07 В 1
{2}
н/о н/о +16.8 +7.9 56 +18 +18 1017.4 949.0
20 10.07 ЮВ 1
{3}
н/о н/о +14.9 +7.1 60 +16 +16 1017.9 949.0
21 10.07 В 2
{3}
н/о н/о +14.1 +6.4 60 +14 +14 1017.9 948.8
22 10.07 В 2
{2}
н/о н/о +14.6 +6.9 60 +15 +15 1017.9 948.9
23 10.07 В 2
{3}
н/о н/о +15.2 +6.4 56 +15 +15 1017.4 948.6
00 11.07 В 2
{3}
н/о н/о +14.8 +6.6 58 +15 +15 1017.0 948.1
01 11.07 В 2
{3}
н/о н/о +15.4 +6.3 55 +16 +16 1016.1 947.4
02 11.07 В 2
{2}
н/о н/о +12.7 +6.5 66 +12 +12 1016.2 946.9
03 11.07 СВ 1
{3}
н/о н/о +11.0 +7.2 77 +11 +11 1016.3 946.5
04 11.07 В 2
{2}
н/о н/о +12.9 +6.3 64 +13 +13 1015.9 946.6
05 11.07 ЮВ 1
{2}
н/о н/о +12.9 +9.2 78 +13 +13 1016.0 946.7
06 11.07 В 1 н/о н/о +14.3 +10.5 78 +15 +15 1015.3 946.4 +11.0
07 11.07 СЗ 1
{2}
н/о н/о +15.8 +10.7 72 +17 +17 1015.2 946.7
08 11.07 В 1
{2}
н/о н/о +17.2 +9.7 61 +18 +18 1015.0 946.8
09 11.07 ЮЗ 2
{2}
н/о н/о +18.0 +11.1 64 +19 +19 1015.2 947.2
10 11.07 В 1
{3}
н/о н/о +19.0 +10.6 58 +21 +21 комфорт 1014.8 947.1
11 11.07 В 2
{3}
н/о н/о +20.7 +9.2 48 +23 +23 комфорт 1014.2 946.9
12 11.07 СВ 1
{3}
н/о н/о +18.6 +10.6 60 +20 +20 1014.8 947.0
13 11.07 СВ 2
{4}
н/о н/о +17.4 +12.0 71 +18 +18 1015.1 947.0
14 11.07 ЮВ 3
{6}
н/о н/о +17.1 +11.9 71 +17 +17 1014.7 946.5
15 11.07 С 2
{6}
н/о н/о +17.2 +13.3 78 +18 +18 1015.1 946.9
16 11.07 СВ 2
{4}
н/о н/о +17.2 +12.8 75 +18 +18 1015.0 946.8
17 11.07 СВ 1
{2}
н/о н/о +17.6 +13.1 75 +19 +19 1015.3 947.2
18 11.07 В 1
{6}
н/о н/о +17.5 +13.0 75 +19 +19 1015.3 947.2 +20.7
19 11.07 ЮЗ 1
{2}
н/о н/о +17.3 +13.4 78 +18 +18 1015.2 947.0
20 11.07 Ю 2
{4}
н/о н/о +18.0 +12.1 68 +19 +19 1014.9 946.9
21 11.07 ЮЗ 1
{4}
н/о н/о +16.8 +11.5 71 +18 +18 1015.5 947.2
22 11.07 Ю 1
{3}
н/о н/о +16.9 +11.5 70 +18 +18 1015.3 947.0
23 11.07 Ю 2
{3}
н/о н/о +16.1 +11.3 73 +16 +16 1015.3 946.8
00 12.07 Ю 2
{4}
н/о н/о +16.4 +11.1 71 +17 +17 1014.9 946.5
01 12.07 ЮЗ 2
{4}
н/о н/о +16.0 +9.8 67 +16 +16 1014.4 946.0
02 12.07 ЮЗ 2
{4}
н/о н/о +16.3 +9.0 62 +16 +16 1014.1 945.8
03 12.07 ЮЗ 2
{4}
н/о н/о +16.5 +8.4 59 +17 +17 1014.2 945.9
04 12.07 ЮЗ 1
{5}
н/о н/о +16.5 +8.5 59 +17 +17 1014.0 945.7
05 12.07 ЮЗ 2
{4}
н/о н/о +16.6 +8.5 59 +17 +17 1014.1 945.8
06 12.07 ЮЗ 2
{5}
н/о н/о +19.0 +9.5 54 +20 +20 1013.1 945.5 +15.7
07 12.07 ЮЗ 3
{7}
н/о н/о +20.4 +9.8 51 +22 +22 комфорт 1013.3 946.0
08 12.07 З 2
{7}
н/о н/о +20.0 +11.4 58 +22 +22 комфорт 1013.6 946.2
09 12.07 ЮЗ 5
{8}
н/о н/о +22.4 +11.5 50 +25 +25 комфорт 1012.7 945.9
10 12.07 З 5
{10}
н/о н/о +22.8 +10.6 46 +25 +25 комфорт 1012.8 946.1
11 12.07 З 5
{11}
н/о н/о +22.4 +9.9 45 +24 +24 комфорт 1012.9 946.1
12 12.07 З 4
{11}
н/о н/о +23.0 +9.3 42 +25 +25 комфорт 1012.7 946.0
13 12.07 З 5
{12}
н/о н/о +24.5 +11.4 44 +26 +26 жарко 1012.0 945.7
14 12.07 З 5
{12}
н/о н/о +22.6 +11.2 48 +25 +25 комфорт 1012.5 945.8
15 12.07 З 8
{12}
н/о н/о +23.2 +10.9 46 +25 +25 комфорт 1012.2 945.6
16 12.07 З 5
{12}
н/о н/о +23.5 +11.5 47 +25 +25 комфорт 1011.9 945.4
17 12.07 З 5
{11}
н/о н/о +22.1 +10.7 48 +24 +24 комфорт 1012.3 945.5
18 12.07 З 5
{12}
н/о н/о +21.8 +9.6 46 +23 +23 комфорт 1012.9 945.9 +25.5
19 12.07 З 3
{8}
н/о н/о +20.9 +9.1 47 +23 +23 комфорт 1013.7 946.5
20 12.07 З 2
{6}
н/о н/о +19.9 +8.5 48 +22 +22 комфорт 1014.4 946.9
21 12.07 З 1
{8}
н/о н/о +19.4 +8.7 50 +21 +21 комфорт 1014.7 947.1
22 12.07 З 1
{2}
н/о н/о +18.7 +8.9 53 +20 +20 1015.3 947.5
23 12.07 СЗ 2
{6}
н/о н/о +17.6 +9.8 60 +18 +18 1016.0 947.9
00 13.07 В 2
{8}
н/о н/о +15.3 +11.9 80 +15 +15 1016.9 948.1
01 13.07 ЮВ 2
{4}
н/о н/о +15.1 +11.9 81 +15 +15 1016.6 947.8
02 13.07 З 2
{3}
н/о н/о +14.7 +11.7 82 +14 +14 1016.9 948.0
03 13.07 З 2
{5}
н/о н/о +14.1 +11.4 84 +14 +14 1017.4 948.3
04 13.07 З 2
{4}
н/о н/о +13.2 +11.4 89 +13 +13 1017.9 948.6
05 13.07 ЮЗ 1
{2}
н/о н/о +13.1 +11.4 89 +14 +14 1018.2 948.8
06 13.07 ЮЗ 2
{5}
н/о н/о +14.6 +11.6 82 +14 +14 1018.4 949.4 +11.7
07 13.07 З 1
{3}
н/о н/о +15.8 +11.4 75 +16 +16 1018.4 949.7
08 13.07 СЗ 2
{4}
н/о н/о +17.1 +9.9 63 +17 +17 1018.3 949.9
09 13.07 СЗ 3
{5}
н/о н/о +18.4 +10.8 61 +19 +19 1018.2 950.1
10 13.07 З 2
{5}
н/о н/о +19.7 +9.2 51 +21 +21 комфорт 1017.7 949.9
11 13.07 З 3
{7}
н/о н/о +20.3 +7.7 44 +22 +22 комфорт 1017.4 949.8
12 13.07 СЗ 4
{7}
н/о н/о +19.6 +9.2 51 +21 +21 комфорт 1017.7 949.9
13 13.07 З 3
{8}
н/о н/о +21.0 +8.1 43 +23 +23 комфорт 1016.9 949.5
14 13.07 СЗ 3
{8}
н/о н/о +20.4 +8.4 46 +22 +22 комфорт 1017.0 949.4
15 13.07 З 4
{8}
н/о н/о +21.7 +6.5 37 +22 +22 комфорт 1016.4 949.2
16 13.07 СЗ 5
{8}
н/о н/о +21.5 +8.1 42 +23 +23 комфорт 1016.2 949.0
17 13.07 СЗ 3
{8}
н/о н/о +20.4 +8.4 46 +22 +22 комфорт 1016.6 949.1
18 13.07 СЗ 4
{8}
н/о н/о +19.3 +9.0 51 +20 +20 1017.0 949.2 +22.3
19 13.07 СЗ 3
{7}
н/о н/о +17.2 +9.0 59 +17 +17 1017.8 949.4
20 13.07 штиль 0
{2}
н/о н/о +16.4 +9.3 63 +16 +16 1018.3 949.7
21 13.07 В 1
{7}
н/о н/о +13.8 +9.5 75 +14 +14 1018.8 949.6
22 13.07 штиль 0
{1}
н/о н/о +14.7 +9.2 70 +14 +14 1018.4 949.4
23 13.07 В 1
{1}
н/о н/о +12.0 +9.5 85 +12 +12 1018.7 949.0
00 14.07 В 1
{7}
н/о н/о +12.1 +9.7 85 +12 +12 1018.2 948.6
01 14.07 В 1
{3}
н/о н/о +13.5 +9.3 76 +14 +14 1017.6 948.4
02 14.07 В 1
{3}
н/о н/о +12.9 +9.4 79 +13 +13 1017.6 948.2
03 14.07 В 1
{3}
н/о н/о +12.6 +9.5 81 +13 +13 1017.2 947.8
04 14.07 В 2
{2}
н/о н/о +12.3 +9.6 84 +12 +12 1016.8 947.3
05 14.07 В 2
{3}
н/о н/о +13.1 +10.0 81 +13 +13 1016.5 947.2
06 14.07 В 2
{4}
н/о н/о +15.0 +11.3 79 +15 +15 1015.7 947.0 +11.3
07 14.07 СВ 4
{7}
н/о н/о +15.8 +11.3 75 +15 +15 1015.9 947.3
08 14.07 СВ 3
{7}
н/о н/о +17.3 +11.8 70 +17 +17 1015.7 947.5
09 14.07 СВ 3
{7}
н/о н/о +19.0 +12.1 64 +20 +20 1014.9 947.2
10 14.07 СВ 3
{8}
н/о н/о +20.3 +11.5 57 +23 +23 комфорт 1014.4 947.0
11 14.07 СВ 3
{7}
н/о н/о +22.4 +9.9 45 +24 +24 комфорт 1013.6 946.7
12 14.07 В 3
{8}
н/о н/о +23.2 +11.0 46 +25 +25 комфорт 1012.7 946.1
13 14.07 СВ 4
{8}
н/о н/о +20.3 +10.8 54 +22 +22 комфорт 1013.1 945.8
14 14.07 СВ 5
{11}
н/о н/о +18.0 +11.8 67 +18 +18 1013.8 945.9
15 14.07 СВ 4
{14}
н/о н/о +15.9 +12.2 79 +15 +15 1015.0 946.5
16 14.07 СЗ 1
{8}
н/о н/о +14.5 +13.1 91 +16 +16 1016.0 947.1 0.7
17 14.07 В 3
{8}
н/о н/о +14.3 +13.3 94 +13 +13 1015.9 947.0 2
18 14.07 В 3
{14}
н/о н/о +13.6 +12.4 92 +12 +12 1016.2 947.1 +23.2 0.1
19 14.07 СВ 4
{8}
н/о н/о +13.4 +12.5 94 +12 +12 1016.4 947.2 0.1
20 14.07 СВ 4
{9}
н/о н/о +13.3 +12.5 95 +12 +12 1016.5 947.3
21 14.07 СВ 5
{11}
н/о н/о +13.2 +12.3 94 +11 +11 1016.5 947.3
22 14.07 СВ 4
{10}
н/о н/о +13.0 +12.3 96 +11 +11 1016.5 947.2
23 14.07 СВ 4
{9}
н/о н/о +12.8 +11.7 93 +11 +11 1016.5 947.2
00 15.07 СВ 4
{11}
н/о н/о +12.6 +11.5 93 +11 +11 1016.4 947.0
01 15.07 СВ 4
{10}
н/о н/о +12.1 +11.0 93 +10 +10 1015.8 946.3 0.4
02 15.07 СВ 4
{10}
н/о н/о +11.6 +10.3 92 +9 +9 1015.8 946.2
03 15.07 СВ 3
{10}
н/о н/о +11.4 +10.1 92 +9 +9 1015.8 946.2 0.1
04 15.07 СВ 3
{8}
н/о н/о +11.2 +9.9 92 +9 +9 1016.1 946.4
05 15.07 В 3
{10}
н/о н/о +11.2 +9.8 91 +9 +9 1016.3 946.6
06 15.07 В 4
{10}
н/о н/о +11.4 +9.9 90 +9 +9 1016.4 946.7 +11.1
07 15.07 В 4
{9}
н/о н/о +11.7 +10.0 89 +10 +10 1016.7 947.1
08 15.07 В 4
{8}
н/о н/о +12.6 +10.5 87 +11 +11 1016.8 947.4
09 15.07 В 4
{9}
н/о н/о +13.7 +10.7 82 +12 +12 1016.8 947.7
10 15.07 В 4
{8}
н/о н/о +15.3 +11.0 76 +14 +14 1016.4 947.7
11 15.07 В 3
{7}
н/о н/о +16.2 +11.5 74 +16 +16 1016.2 947.7
12 15.07 В 3
{9}
н/о н/о +17.8 +12.2 70 +18 +18 1015.8 947.7
13 15.07 В 3
{7}
н/о н/о +18.8 +12.5 67 +20 +20 1015.4 947.6
14 15.07 СВ 3
{8}
н/о н/о +19.0 +12.2 65 +20 +20 1015.7 947.9
15 15.07 СВ 2
{8}
н/о н/о +19.6 +11.8 61 +22 +22 комфорт 1015.4 947.8
16 15.07 СВ 3
{5}
н/о н/о +20.5 +11.6 57 +23 +23 комфорт 1014.8 947.4
17 15.07 В 3
{6}
н/о н/о +20.3 +11.2 56 +22 +22 комфорт 1015.0 947.6
18 15.07 В 3
{8}
н/о н/о +19.3 +11.1 59 +21 +21 комфорт 1015.4 947.7 +21.9
19 15.07 В 2
{5}
н/о н/о +17.5 +11.4 67 +18 +18 1016.2 948.0
20 15.07 В 2
{4}
н/о н/о +16.4 +11.7 74 +17 +17 1016.8 948.3
21 15.07 В 2
{5}
н/о н/о +15.5 +11.6 78 +16 +16 1017.4 948.7
22 15.07 В 2
{3}
н/о н/о +14.1 +11.5 84 +14 +14 1018.1 949.0
23 15.07 В 2
{4}
н/о н/о +13.7 +11.2 85 +13 +13 1018.1 948.9
00 16.07 В 2
{5}
н/о н/о +12.3 +10.9 91 +12 +12 1018.6 949.0
01 16.07 В 3
{5}
н/о н/о +13.5 +10.5 82 +13 +13 1018.4 949.1
02 16.07 В 3
{7}
н/о н/о +12.8 +10.6 86 +11 +11 1018.5 949.0
03 16.07 В 3
{7}
н/о н/о +11.8 +10.6 92 +10 +10 1018.6 948.9
04 16.07 В 3
{6}
н/о н/о +11.3 +9.8 90 +9 +9 1018.6 948.8
05 16.07 В 3
{6}
н/о н/о +11.3 +10.0 92 +10 +10 1018.9 949.0
06 16.07 В 4
{7}
н/о н/о +12.7 +9.7 82 +11 +11 1018.6 949.1 +11.1
07 16.07 СВ 2
{5}
н/о н/о +14.5 +10.7 78 +14 +14 1018.3 949.3
08 16.07 СВ 2
{4}
н/о н/о +17.3 +12.1 71 +18 +18 1017.6 949.3
09 16.07 СВ 2
{5}
н/о н/о +18.7 +12.1 65 +20 +20 1017.1 949.1
10 16.07 СВ 2
{4}
н/о н/о +20.8 +12.5 59 +24 +24 комфорт 1016.5 949.1
11 16.07 С 2
{5}
н/о н/о +22.4 +13.1 56 +25 +25 комфорт 1015.9 948.9
12 16.07 В 2
{5}
н/о н/о +22.9 +11.1 47 +25 +25 комфорт 1015.4 948.5
13 16.07 В 2
{5}
н/о н/о +24.5 +10.5 41 +26 +26 жарко 1014.5 948.1 2
14 16.07 С 2
{4}
н/о н/о +24.1 +9.7 40 +25 +25 комфорт 1014.4 947.9 0.1
15 16.07 СЗ 2
{5}
н/о н/о +25.0 +8.5 35 +25 +25 комфорт 1014.1 947.8
17 16.07 СВ 1
{4}
н/о н/о +24.6 +7.4 33 +25 +25 комфорт 1013.8 947.4
18 16.07 СЗ 3
{6}
н/о н/о +22.7 +7.4 37 +24 +24 комфорт 1014.3 947.5 +25.9
19 16.07 З 1
{5}
н/о н/о +20.9 +7.2 41 +23 +23 комфорт 1015.0 947.7
20 16.07 штиль 0
{2}
н/о н/о +19.2 +6.7 44 +20 +20 1015.5 947.8
21 16.07 Ю 1
{5}
н/о н/о +16.4 +7.5 56 +18 +18 1016.2 947.8
22 16.07 СВ 1
{1}
н/о н/о +16.9 +7.1 52 +18 +18 1016.2 947.9
23 16.07 В 2
{2}
н/о н/о +15.4 +9.4 67 +16 +16 1016.5 947.8

 

Местоположение метеостанции Фаи (Швейцария): широта 47.43 долгота 6.95 высота над уровнем моря 597 м.

В архиве по умолчанию представлена погода в Фаи за последнюю неделю. Архивные данные за месяц целиком и за предыдущие месяцы, начиная с января 2011 года, Вы можете получить, выбрав интересующий диапазон дат из раскрывающегося списка и нажав кнопку "Ввод!".


*Определитесь, кто Вы:
робот инопланетянин человек

Внимание! Время в таблицах - всемирное. Для получения местного времени необходимо прибавить поправку, которая равна 1 ч.

Смотрите также архив погоды в соседних городах и на ближайших метеорологических станциях:

Погода в Доране (Франция) (20 км)
Погода в Делемоне (Швейцария) (29 км)
Погода в Веве (Швейцария) (29 км)
Погода на Шасрале (Швейцария) (35 км)
Погода Ла-Шо-де-Фон (Швейцария) (41 км)
Погода в Кресье (Швейцария) (43 км)
Погода в Гренхене (Швейцария) (45 км)
Погода в Евроаэропорту (Франция) (47 км)
Погода в Невшателе (Швейцария) (48 км)
Погода в Базель Биннингене (Швейцария) (49 км)

Пояснения к столбцам:

Ветер - указаны скорость ветра в м/с - средняя за 10 мин, порывы в срок и между сроками (в фигурных скобках) и направление, откуда дует ветер: С - северный, СВ - северо-восточный, В - восточный, ЮВ - юго-восточный, Ю - южный, ЮЗ - юго-западный, З - западный, СЗ - северо-западный.
Видимость - горизонтальная дальность видимости в метрах или километрах. При видимости от 1 до 10 км при отсутствии осадков обычно наблюдается дымка, при ухудшении видимости до 1 км и менее - туман. В сухую погоду видимость может ухудшаться дымом, пылью или мглою.
Явления - указаны атмосферные явления, наблюдавшиеся в срок или в последний час перед сроком; фигурными скобками обозначены явления, наблюдавшиеся между сроками (за 1-3 часа до срока); квадратными скобками обозначены град или гололедные отложения с указанием их диаметра в мм.
Облачность - указаны через наклонную черту общая и нижняя облачность в баллах и высота нижней границы облаков в метрах; квадратными скобками обозначены формы облаков: Ci - перистые, Cs - перисто-слоистые, Cc - перисто-кучевые, Ac - высококучевые, As - высокослоистые, Sc - слоисто-кучевые, Ns - слоисто-дождевые, Cu - кучевые, Cb - кучево-дождевые. Подробнее классификацию облаков см. в Атласе облаков (PDF).
T - Температура воздуха - температура, измеренная на высоте 2 м над землей.
Td - Температура точки росы - температура, при понижении до которой содержащийся в воздухе водяной пар достигнет насыщения.
f - Относительная влажность воздуха - влажноcть воздуха, измеренная на высоте 2 м над землей.
Te - Эффективная температура - температура, которую ощущает одетый по сезону человек в тени. Характеристика душности погоды. При расчете учитывается влияние влажности воздуха и скорости ветра на теплоощущения человека.
Tes - Эффективная температура на солнце - температура, которую ощущает человек, с поправкой на солнечный нагрев. Характеристика знойности погоды. Зависит от высоты солнца над горизонтом, облачности и скорости ветра. Ночью, в пасмурную погоду, а также при ветре 12 м/с и более поправка равна нулю.
P - Атмосферное давление - приведенное к уровню моря атмосферное давление.
Po - Атмосферное давление - измеренное на уровне метеостанции атмосферное давление.
Tmin - Минимальная температура - минимум температуры воздуха на высоте 2 м над землей.
Tmax - Максимальная температура - максимум температуры воздуха на высоте 2 м над землей.
R - Количество осадков - Количество выпавших осадков за период времени, мм. При наведении курсора мыши на число - период времени, за который выпало указанное количество осадков.
R24 - Количество осадков - Количество выпавших осадков за 24 часа, мм.
S - Снежный покров - Высота снежного покрова, см. При наведении курсора мыши на число - состояние снежного покрова и степень покрытия местности в баллах.